Regional Weather Roundup
Issued by NWS Albany, NY

Home | Current Version | Previous Version | Graphics & Text | Print | Product List | Glossary On
Versions: 1 2 3 4 5 6 7 8 9 10 11 12 13 14 15 16 17 18 19 20 21 22 23 24 25 26 27 28 29 30 31 32 33 34 35 36 37 38 39 40 41 42 43 44 45 46 47 48 49 50
000
ASUS41 KALY 241310
RWRALY

NEW YORK STATE HOURLY WEATHER ROUNDUP
NATIONAL WEATHER SERVICE ALBANY NY
900 AM EDT MON JUL 24 2017

NOTE: "FAIR" INDICATES FEW OR NO CLOUDS BELOW 12,000 FEET WITH NO
SIGNIFICANT WEATHER AND/OR NO OBSTRUCTIONS TO VISIBILITY.

NYZ032-033-038>043-046>054-057>066-NYZ062>081-082-084-241400-
EAST


CITY           SKY/WX    TMP DP  RH WIND       PRES   REMARKS
ALBANY         LGT RAIN  60  54  80 SE7       29.89S
GLENS FALLS    LGT RAIN  58  56  93 N3        29.92R
POUGHKEEPSIE   HVY RAIN  61  59  93 N13       29.83R VSB 3/4
NEWBURGH       RAIN      61  61 100 NE12G17   29.84R FOG
MONTGOMERY     HVY RAIN  61  60  97 N16G26    29.84R VSB 3/4
WHITE PLAINS   LGT RAIN  63  61  94 E15G22    29.78S FOG
ISLIP          LGT RAIN  71  70  96 E13       29.76S
NEW YORK CITY  LGT RAIN  70  68  93 NE10      29.77R
CENTRAL PARK   LGT RAIN  68  67  96 VRB7      29.78F FOG
$$

NYZ005>009-017-018-044>046-055-056-241400-
CENTRAL


CITY           SKY/WX    TMP DP  RH WIND       PRES   REMARKS
FULTON         CLOUDY    67  64  90 SE6       29.75S
SYRACUSE       CLOUDY    66  65  96 E8        29.76F
ROME           CLOUDY    65  62  90 SE9       29.81F
ELMIRA         CLOUDY    68  66  93 SW6       29.79S
BINGHAMTON     CLOUDY    63  62  97 S3        29.83S
$$

NYZ026>034-041>043-087-241400-
NORTH


CITY           SKY/WX    TMP DP  RH WIND       PRES   REMARKS
WATERTOWN      HVY RAIN  66  65  96 SE5       29.73R VSB 3/4
FORT DRUM      NOT AVBL
OGDENSBURG     RAIN      61  60  96 E8        29.80F
MASSENA        LGT RAIN  59  57  93 E7        29.86R
SARANAC LAKE   HVY RAIN  58  58 100 VRB5      29.89R FOG
PLATTSBURGH    RAIN      60  56  86 S7        29.92R
$$

NYZ001>004-010>016-019>021-085-241400-
WEST


CITY           SKY/WX    TMP DP  RH WIND       PRES   REMARKS
NIAGARA FALLS  PTSUNNY   72  64  76 NW5       29.76S
BUFFALO        MOSUNNY   71  65  81 W10       29.77R
DUNKIRK        CLOUDY    71  65  81 W9        29.80R
JAMESTOWN      CLOUDY    68  61  77 W10       29.84S
WELLSVILLE     PTSUNNY   70  65  84 SW5       29.85S
ROCHESTER      CLOUDY    70  68  93 W6        29.76R
PENN YAN       CLOUDY    67  63  87 S10       29.78S
$$

             KEY
       WCI = WIND CHILL INDEX
       VSB = VISIBILITY
       HX  = HEAT INDEX
$$



USA.gov is the U.S. government's official web portal to all federal, state and local government web resources and services.